This demonstration page uses our WeatherBlox Daily Observations layout. Learn more.

38.89511, -77.03637

Hourly Observations for September 28, 2015

Temp ( °F °C ) Dew Point ( °F °C ) Humidity (%) Winds ( mph kmh ) Pressure ( in mb ) Visibility ( mi km ) Precip ( " mm )
12:52 am 00:52 Cloudy 69 20.6 63 17.2 81 81 NE 10 17 30.26 1025 10 16.0934 0 0
1:35 am 01:35 Cloudy 68 20 63 17 83 83 ENE 8 13 30.24 1024 10 16.0934 0 0
1:52 am 01:52 Cloudy 68 20 63 17.2 84 84 NE 8 13 30.25 1024 10 16.0934 0 0
2:52 am 02:52 Cloudy 68 20 63 17.2 84 84 NE 8 13 30.23 1024 10 16.0934 0 0
3:52 am 03:52 Cloudy 68 20 63 17.2 84 84 ENE 8 13 30.21 1023 10 16.0934 0 0
4:52 am 04:52 Cloudy 67 19.4 64 17.8 91 91 NE 8 13 30.2 1023 10 16.0934 0 0
5:18 am 05:18 Cloudy 66 19 64 18 94 94 NE 7 11 30.21 1023 10 16.0934 0 0
5:52 am 05:52 Cloudy 67 19.4 65 18.3 93 93 NE 6 9 30.2 1023 7 11.26538 0 0
6:12 am 06:12 Cloudy 66 19 64 18 94 94 NE 8 13 30.21 1023 7 11.26538 0 0
6:52 am 06:52 Cloudy 67 19.4 65 18.3 93 93 ENE 6 9 30.2 1023 7 11.26538 0 0
7:52 am 07:52 Cloudy 68 20 65 18.3 90 90 ENE 7 11 30.2 1023 10 16.0934 0 0
8:18 am 08:18 Cloudy 68 20 64 18 88 88 ENE 8 13 30.21 1023 10 16.0934 0 0
8:52 am 08:52 Cloudy 69 20.6 65 18.3 87 87 ENE 8 13 30.21 1023 10 16.0934 0 0
9:34 am 09:34 Cloudy 72 22 64 18 78 78 NE 5 7 30.21 1023 10 16.0934 0 0
9:52 am 09:52 Cloudy 72 22.2 65 18.3 79 79 NE 7 11 30.22 1023 10 16.0934 0 0
10:41 am 10:41 Cloudy 75 24 66 19 74 74 ENE 6 9 30.21 1023 10 16.0934 0 0
10:52 am 10:52 Cloudy 74 23.3 66 18.9 76 76 ENE 6 9 30.21 1023 10 16.0934 0 0
10:56 am 10:56 Cloudy 75 24 66 19 74 74 ENE 7 11 30.21 1023 10 16.0934 0 0
11:34 am 11:34 Cloudy 75 24 66 19 74 74 ESE 7 11 30.21 1023 10 16.0934 0 0
11:52 am 11:52 Cloudy 78 25.6 67 19.4 69 69 VRB 6 9 30.19 1023 10 16.0934 0 0
12:52 pm 12:52 Cloudy 79 26.1 66 18.9 65 65 E 3 6 30.17 1022 10 16.0934 0 0
1:52 pm 13:52 Cloudy 80 26.7 67 19.4 64 64 SE 7 11 30.15 1021 10 16.0934 0 0
2:52 pm 14:52 Cloudy 80 26.7 67 19.4 64 64 SE 6 9 30.13 1020 10 16.0934 0 0
3:52 pm 15:52 Cloudy 81 27.2 66 18.9 61 61 S 5 7 30.11 1020 10 16.0934 0 0
4:52 pm 16:52 Mostly Cloudy 82 27.8 65 18.3 56 56 ESE 7 11 30.09 1019 10 16.0934 0 0
5:52 pm 17:52 Mostly Cloudy 81 27.2 66 18.9 61 61 ESE 9 15 30.08 1019 10 16.0934 0 0
6:52 pm 18:52 Mostly Cloudy 78 25.6 67 19.4 69 69 ESE 9 15 30.08 1019 10 16.0934 0 0
7:52 pm 19:52 Cloudy 76 24.4 68 20 77 77 E 6 9 30.1 1019 10 16.0934 0 0
8:52 pm 20:52 Cloudy 75 23.9 68 20 79 79 E 5 7 30.1 1019 10 16.0934 0 0
9:52 pm 21:52 Mostly Cloudy 73 22.8 68 20 84 84 Calm 30.09 1019 10 16.0934 0 0
10:41 pm 22:41 Mostly Cloudy 73 23 68 20 83 83 NE 5 7 30.09 1019 10 16.0934 0 0
10:52 pm 22:52 Mostly Cloudy 73 22.8 68 20 84 84 NE 5 7 30.09 1019 10 16.0934 0 0
11:00 pm 23:00 Mostly Cloudy 73 23 68 20 83 83 NE 5 7 30.09 1019 10 16.0934 0 0
11:52 pm 23:52 Mostly Cloudy 73 22.8 68 20 84 84 Calm 30.09 1019 10 16.0934 0 0

Powered by AerisWeather